GW3215 Weather Reports


Display with metric or nautical units.
time (UTC)temp
F
wind
direction
speed
MPH
gust
MPH
rain 1hr
in
rain 24hr
in
rain mn
in
humidity
%
barometer
mb
20260504034510 48 172 0.0 1.0 0.00 0.01 0.01 88 1017.2
20260504033015 48 172 0.0 1.0 0.00 0.01 0.01 87 1017.2
20260504031521 49 172 0.0 1.0 0.00 0.01 0.01 86 1017.2
20260504030026 49 172 0.0 1.0 0.00 0.01 0.01 85 1017.2
20260504024508 49 172 0.0 0.0 0.00 0.01 0.01 84 1017.1
20260504023010 50 172 0.0 0.0 0.00 0.01 0.01 82 1016.9
20260504021516 51 172 0.0 0.0 0.00 0.01 0.01 80 1016.8
20260504020023 52 172 0.0 0.0 0.00 0.01 0.01 79 1016.6
20260504014537 52 172 0.0 0.0 0.00 0.01 0.01 78 1016.4
20260504013036 53 174 0.0 0.0 0.00 0.01 0.01 77 1016.3
20260504011515 54 174 0.0 0.0 0.00 0.01 0.01 74 1016.2
20260504010020 56 174 0.0 1.0 0.00 0.01 0.01 70 1016.2
20260504004527 58 174 0.0 0.0 0.00 0.01 0.01 67 1016.0
20260504003024 59 174 0.0 0.0 0.00 0.01 0.01 65 1015.9
20260504001528 60 174 0.0 0.0 0.00 0.01 0.01 61 1015.8
20260504000019 62 174 0.0 1.0 0.00 0.01 0.01 57 1015.7
20260503234523 63 156 0.0 1.0 0.00 0.01 0.01 54 1015.5
20260503233026 65 156 0.0 3.0 0.00 0.03 0.01 52 1015.5
20260503231528 67 178 1.0 6.0 0.00 0.05 0.01 43 1015.6
20260503230028 67 240 1.0 5.0 0.00 0.06 0.01 44 1015.8
20260503224517 68 166 1.0 6.0 0.00 0.06 0.01 40 1015.9
20260503223006 68 207 2.0 6.0 0.00 0.06 0.01 40 1015.9
20260503221509 69 236 2.0 5.0 0.00 0.06 0.01 39 1015.9
20260503220013 69 153 0.0 7.0 0.00 0.06 0.01 41 1016.0
20260503214503 69 153 1.0 6.0 0.00 0.06 0.01 41 1016.1
20260503213007 70 241 1.0 5.0 0.00 0.06 0.01 39 1016.2
20260503211504 70 219 2.0 7.0 0.00 0.06 0.01 40 1016.3
20260503210008 71 225 1.0 8.0 0.00 0.06 0.01 40 1016.4
20260503204516 70 207 2.0 7.0 0.00 0.06 0.01 41 1016.6
20260503203008 70 107 0.0 6.0 0.00 0.06 0.01 42 1016.8
20260503201506 69 219 3.0 8.0 0.00 0.06 0.01 40 1017.1
20260503200006 70 234 3.0 6.0 0.00 0.06 0.01 40 1017.6
20260503194521 69 271 4.0 9.0 0.00 0.06 0.01 37 1017.9
20260503193016 69 11 4.0 10.0 0.00 0.06 0.01 40 1018.0
20260503191519 69 217 2.0 10.0 0.00 0.06 0.01 43 1018.5
20260503190006 69 342 4.0 10.0 0.00 0.06 0.01 41 1018.6
20260503184515 70 244 2.0 5.0 0.00 0.06 0.01 45 1018.8
20260503183017 69 315 1.0 6.0 0.00 0.06 0.01 46 1018.8
20260503181520 69 71 1.0 5.0 0.00 0.06 0.01 45 1018.8
20260503180026 66 161 2.0 7.0 0.00 0.06 0.01 47 1019.1
20260503174506 67 235 2.0 7.0 0.00 0.06 0.01 46 1019.1
20260503173012 67 284 2.0 7.0 0.00 0.06 0.01 44 1019.1
20260503171516 66 226 4.0 8.0 0.00 0.06 0.01 46 1019.4
20260503081525 42 185 0.0 1.0 0.01 0.08 0.01 93 1017.2
20260503071528 43 185 0.0 1.0 0.00 0.07 0.00 93 1016.8
20260503054524 45 185 0.0 0.0 0.00 0.07 0.00 92 1016.3
20260503053035 46 185 0.0 0.0 0.00 0.07 0.00 92 1016.4
20260503051525 46 185 0.0 0.0 0.00 0.07 0.00 92 1016.4
20260503050028 46 185 0.0 0.0 0.00 0.07 0.00 92 1016.4
20260503044528 47 185 0.0 0.0 0.00 0.07 0.00 91 1016.4
20260503043003 47 185 0.0 0.0 0.00 0.07 0.00 91 1016.3
20260503041506 48 185 0.0 0.0 0.00 0.07 0.00 91 1016.3
20260503040003 48 185 0.0 0.0 0.00 0.07 0.00 91 1016.1